Location: Beverley
(50.2667°N, 107.9667°W)
Time: 08:44:11
(UTC+00:00)

EO-79 - Pass Details

Date: 08 July 2022
Orbit: 588 x 603 km, 98.0° (Epoch: 17 August)

Event Time Altitude Azimuth Distance (km) Brightness Sun altitude
Rises 08:32:46 0° 19° (NNE) 2,864 ? -15.4°
Reaches altitude 10° 08:35:02 10° 27° (NNE) 1,958 ? -15.3°
Maximum altitude 08:39:05 42° 98° (E) 873 ? -15.0°
Enters shadow 08:41:50 18° 162° (SSE) 1,476 ? -14.9°
